Location: Torino
(45.0500°N, 7.6670°E)
Time: 12:18:43
(UTC+02:00)

ISS - Visible Passes

Search period start: 11 May 2021 00:00
Search period end: 21 May 2021 00:00
Orbit: 418 x 421 km, 51.6° (Epoch: 11 May)

Date Brightness Start Highest point End Pass type
(mag) Time Alt. Az. Time Alt. Az. Time Alt. Az.
11 May -1.5 02:04:21 25° NNE 02:04:21 25° NNE 02:06:12 10° NE visible
11 May -1.6 03:37:35 10° NW 03:40:30 26° N 03:43:25 10° ENE visible
11 May -3.0 05:14:27 10° NW 05:17:47 56° NNE 05:21:08 10° ESE visible
12 May -0.9 01:18:16 13° NE 01:18:16 13° NE 01:18:47 10° NE visible
12 May -1.5 02:51:12 17° NW 02:52:54 25° N 02:55:47 10° ENE visible
12 May -2.4 04:27:03 10° NW 04:30:17 41° NNE 04:33:31 10° E visible
13 May -1.6 02:05:02 26° NNW 02:05:18 26° N 02:08:13 10° NE visible
13 May -2.0 03:39:37 10° NW 03:42:44 33° NNE 03:45:51 10° E visible
13 May -3.8 05:16:23 10° WNW 05:19:44 65° SW 05:23:05 10° SE visible
14 May -1.5 01:18:38 25° NNE 01:18:38 25° NNE 01:20:43 10° NE visible
14 May -1.7 02:52:10 10° NW 02:55:10 28° N 02:58:09 10° ENE visible
14 May -3.7 04:28:56 10° WNW 04:32:19 82° NNE 04:35:42 10° ESE visible
14 May -3.8 22:49:51 10° SW 22:53:10 59° SE 22:55:37 17° ENE visible
15 May -2.1 00:27:01 10° W 00:30:08 34° NNW 00:33:16 10° NE visible
15 May -1.5 02:04:39 10° NW 02:07:34 26° N 02:10:29 10° ENE visible
15 May -3.1 03:41:30 10° NW 03:44:51 56° NNE 03:48:11 10° ESE visible
15 May -2.7 05:18:38 10° W 05:21:28 25° SW 05:24:18 10° SSE visible
15 May -3.2 22:02:40 10° SSW 22:05:48 37° SE 22:08:56 10° ENE visible
15 May -2.6 23:39:21 10° W 23:42:35 43° NNW 23:45:50 10° NE visible
16 May -1.5 01:17:04 10° WNW 01:19:57 25° N 01:22:50 10° ENE visible
16 May -2.5 02:54:06 10° NW 02:57:20 41° NNE 03:00:34 10° E visible
16 May -3.3 04:30:57 10° WNW 04:34:09 40° SW 04:37:20 10° SSE visible
16 May -3.2 22:51:45 10° WSW 22:55:05 59° NNW 22:58:26 10° NE visible
17 May -1.5 00:29:26 10° WNW 00:32:21 26° N 00:35:16 10° NE visible
17 May -2.0 02:06:41 10° NW 02:09:47 33° NNE 02:12:53 10° E visible
17 May -3.9 03:43:25 10° WNW 03:46:47 64° SSW 03:50:07 10° SE visible
17 May -3.8 22:04:15 10° WSW 22:07:37 87° NNW 22:11:00 10° ENE visible
17 May -1.7 23:41:45 10° WNW 23:44:45 29° N 23:47:45 10° NE visible
18 May -1.7 01:19:12 10° NW 01:22:12 28° N 01:22:56 26° NE visible
18 May -2.0 22:54:03 10° W 22:57:10 34° NNW 23:00:17 10° NE visible
19 May -1.5 00:31:41 10° NW 00:34:36 26° N 00:36:31 16° NE visible
19 May -1.3 02:08:32 10° NW 02:09:26 17° NW 02:09:26 17° NW visible
19 May -2.4 22:06:23 10° W 22:09:37 43° NNW 22:12:51 10° NE visible
19 May -1.5 23:44:06 10° WNW 23:46:59 25° N 23:49:52 10° ENE visible
20 May -1.9 01:21:07 10° NW 01:23:16 31° NNW 01:23:16 31° NNW visible
20 May -1.5 22:56:27 10° WNW 22:59:22 26° N 23:02:17 10° NE visible
